Showing default

CENTISPACE-1 S7, 62576

Orbit data source: Space-Track

CENTISPACE-1 S7, 62576 is a payload satellite owned by Centispace (CN) in LEO that was launched on Mon, 13 Jan 2025 UTC via a JIELONG-3 launch vehicle from the Yellow Sea Launch Area, China (YSLA). Payload-class satellites include a variety of spacecraft equipped with specific instruments for various scientific and technological missions. These include communications satellites like Starlink; space stations such as the ISS; scientific satellites like the Hubble; Earth observation satellites from companies like Planet Labs, Umbra, and HawkEye 360; GPS; miniature CubeSats for education and research; and military/defense satellites.

Loading next visibility...
Identifier
62576, 2025-007B
Orbit
LEO
Country
Flag of CNCN / PRC
Related business
Manufacturer
DFH Shenzhen
Mission
Operational Commercial Nav/Com
Bus & Motor
WK01, Unknown motor
Mass
140 kg wet, 140 kg dry
Launch date (UTC)
2025-01-13 (10 months ago)
Launch vehicle
JIELONG-3
Launch site
Yellow Sea Launch Area, China (YSLA)
Object type
Payload
Rocket body
Debris
Shape & HBR
Box + 2 Pan, 0.9 m
Radar Cross Section
0.833 m², Medium (>0.1 m² and < 1m²)

Expand to show TLE details & history
Last TLE update: 15 hours ago

TLE from 15 hours ago
0 CENTISPACE-1 S7
1 62576U 25007B   25305.62372938  .00000145  00000-0  97880-4 0  9991
2 62576  54.9807  30.9167 0041346  90.5715 270.0006 14.39279259 42903
Epoch: 2025-11-01T14:58Z
TLE epoch observation values (Epoch: 2025-11-01T14:58:10.218Z)
Latitude
-0.00002°
Longitude
125.22297°
Altitude
762.052 km
Speed
7.474 km/s
True Right ascension
02h 03m 40s
True Declination
0° 00' 00"
Sunlit
Object was in full shadow at epoch
Visualization orbit readout
Latitude
Unknown
Longitude
Unknown
Altitude
Unknown
Speed
Unknown
Apparent Right ascension
Unknown
Apparent Declination
Unknown
Sunlit
N/A
Visualization observer readout
Local Sidereal Time
01:16:14
Azimuth
Unknown
Elevation
Unknown
Doppler factor
Unknown
Orbital elements
Apogee altitude
790.365 km
Perigee altitude
731.331 km
Semi-major axis
7,138.985 km
Eccentricity
0.00413
Inclination
54.9807°
RAAN
30.9167°
Arg. of periapsis
90.5715°
True anomaly
269.52682°
Mean anomaly
270.0006°
Eccentric anomaly
269.76371°
Mean motion
3.59823 °/min
Orbital period
100.05 mins
BSTAR
0.00009788
Loading maneuver chart data...
Computing Atmospheric mass density...
Loading historical data...
Loading historical data...
Loading historical data...
Loading historical data...
Loading historical data...
Loading historical data...
Loading historical data...

Documentation

Showing up to 5 results
|